Other Public Products
Issued by NWS Charleston, SC

Current Version | Previous Version | Graphics & Text | Print | Product List | Glossary On
Versions: 1 2 3 4 5 6 7 8 9 10 11 12 13 14 15 16 17 18 19 20 21 22 23 24 25 26 27 28 29 30 31 32 33 34 35 36 37 38 39 40 41 42 43 44 45 46 47 48 49 50
445 FPUS82 KCHS 250412 OPUCHS TEST...KCHS/KSAV Gateway Observations...TEST National Weather Service Charleston SC 1100 PM EST SAT FEB 24 2018 NOTE: "fair" indicates few or no clouds below 12,000 feet with no significant weather and/or obstructions to visibility. SCZ050-WAZ558-NCZ071-TXZ119-213-PAZ071-DCZ001-FLZ074-172-MI076- NYZ176-178-MAZ016-IL014-TNZ027-NJZ106-GAZ044-MD014-250500- ...Gateway Observations for Charleston International... CITY SKY/WX TMP DP RH WIND PRES REMARKS Chas Airport FAIR 65 62 90 S8 30.15R Seattle CLOUDY 43 30 60 SW16G23 30.12F Charlotte FAIR 70 58 65 S12 30.06S Dallas DFW MOCLDY 56 45 66 CALM 29.96R Dallas Love MOCLDY 52 48 86 SE3 29.97R Philladelphia LGT RAIN 46 42 86 NE9 30.17F Wash National RAIN 50 47 89 NE9 30.13F FOG Baltimore LGT RAIN 47 46 97 E9 30.14S FOG Miami MOCLDY 73 68 84 SE12G20 30.18R Detroit LGT RAIN 37 34 89 E12 29.86F WCI 29 Newark LGT RAIN 44 43 96 NE9 30.21F Laguardia CLOUDY 44 40 85 NE8 30.21F J F K CLOUDY 44 42 93 NE10 30.22F Boston Logan FAIR 39 30 70 N7 30.28R WCI 34 Ft. Lauderdale FAIR 75 70 84 SE14 30.16S Chicago O`Hare CLOUDY 46 43 89 SE17G25 29.50F Chicago Midway CLOUDY 47 45 93 SE16G29 29.51F Houston Bush CLOUDY 74 70 87 S5 29.93S Houston Hobby CLOUDY 73 72 96 S6 29.93R Nashville LGT RAIN 70 62 76 S21G29 29.85R Atlanta FAIR 70 59 68 SW12 30.07R $$ GAZ044-118-TXZ119-213-NCZ071-DCZ001-MDZ014-506-PAZ021-071-NJZ106- NYZ176-178-MAZ106-OHZ011-021-055-MIZ076-KYZ091-ILZ014-INZ047- MNZ060-ONZ431-250500- ...Gateway Observations for Savannah International... CITY SKY/WX TMP DP RH WIND PRES REMARKS Savannah Arpt FAIR 67 65 93 S7 30.15S Atlanta FAIR 70 59 68 SW12 30.07R Charlotte FAIR 70 58 65 S12 30.06S Dallas DFW MOCLDY 56 45 66 CALM 29.96R Houston Bush CLOUDY 74 70 87 S5 29.93S Wash National RAIN 50 47 89 NE9 30.13F FOG Wash Dulles CLOUDY 47 47 100 E5 30.11F FOG Baltimore LGT RAIN 47 46 97 E9 30.14S FOG Philadelphia LGT RAIN 46 42 86 NE9 30.17F Newark LGT RAIN 44 43 96 NE9 30.21F Laguardia CLOUDY 44 40 85 NE8 30.21F J F K CLOUDY 44 42 93 NE10 30.22F Boston FAIR 39 30 70 N7 30.28R WCI 34 Pittsburg LGT RAIN 47 46 97 SE9 29.91F Akron RAIN 47 44 90 SE14 29.86F FOG Cleveland LGT RAIN 46 43 89 SE6 29.89F Cincinnati HVY RAIN 54 54 100 SW14G23 29.75S FOG Columbus RAIN 49 49 100 E8 29.79F Detroit LGT RAIN 37 34 89 E12 29.86F WCI 29 Chicago O`Hare CLOUDY 46 43 89 SE17G25 29.50F Minneapolis SNOW 29 29 100 S3 29.48F VSB 1/2 Indianapolis CLOUDY 53 52 96 SE23G32 29.54F Toronto Canada CLOUDY 36 25 64 E9 30.06F WCI 29 $$

USA.gov is the U.S. government's official web portal to all federal, state and local government web resources and services.